This is the latest recevied weather packets stored in our database for station/object IW2LSY-11. If no packets are shown the sender has not sent any weather packets the latest 10 day(s).
| Time | Temp. | Humidity | Pressure | Rain* | Wind** | Luminosity | Snow |
|---|---|---|---|---|---|---|---|
| 1777835408 | 17.22° C | 41% | 1016.9 hPa | - | - | 494 W/m² | - |
| 1777834808 | 17.78° C | 40% | 1016.9 hPa | - | - | 495 W/m² | - |
| 1777834208 | 18.33° C | 41% | 1016.7 hPa | - | - | 496 W/m² | - |
| 1777833609 | 18.89° C | 40% | 1016.5 hPa | - | - | 497 W/m² | - |
| 1777833009 | 19.44° C | 39% | 1016.3 hPa | - | - | 498 W/m² | - |
| 1777832409 | 19.44° C | 39% | 1016.1 hPa | - | - | 499 W/m² | - |
| 1777831809 | 20.56° C | 36% | 1016.1 hPa | - | - | 500 W/m² | - |
| 1777831209 | 20.56° C | 35% | 1016 hPa | - | - | 501 W/m² | - |
| 1777830609 | 21.67° C | 34% | 1015.9 hPa | - | - | 503 W/m² | - |
| 1777830009 | 21.67° C | 33% | 1015.9 hPa | - | - | 505 W/m² | - |
| 1777829410 | 22.22° C | 32% | 1015.8 hPa | - | - | 506 W/m² | - |
| 1777828810 | 22.22° C | 31% | 1015.9 hPa | - | - | 505 W/m² | - |
| 1777828209 | 21.67° C | 31% | 1015.8 hPa | - | - | 507 W/m² | - |
| 1777827610 | 22.22° C | 29% | 1015.9 hPa | - | - | 508 W/m² | - |
| 1777827010 | 22.78° C | 29% | 1015.9 hPa | - | - | 510 W/m² | - |
| 1777826410 | 22.78° C | 27% | 1015.8 hPa | - | - | 509 W/m² | - |
| 1777825810 | 22.78° C | 27% | 1015.9 hPa | - | - | 511 W/m² | - |
| 1777825210 | 22.78° C | 26% | 1016 hPa | - | - | 511 W/m² | - |
| 1777824610 | 23.33° C | 26% | 1015.9 hPa | - | - | 511 W/m² | - |
| 1777824010 | 23.33° C | 26% | 1015.8 hPa | - | - | 517 W/m² | - |
| 1777823410 | 23.33° C | 26% | 1015.8 hPa | - | - | 520 W/m² | - |
| 1777822811 | 23.89° C | 26% | 1015.8 hPa | - | - | 520 W/m² | - |
| 1777822210 | 23.33° C | 26% | 1015.8 hPa | - | - | 520 W/m² | - |
| 1777821611 | 23.89° C | 26% | 1015.7 hPa | - | - | 521 W/m² | - |
| 1777821011 | 24.44° C | 25% | 1015.7 hPa | - | - | 521 W/m² | - |
* Rain since midnight (hover to see other rain measurements)
** Current wind speed in m/s (hover to see current wind gust speed)